Regional Weather Roundup
Issued by NWS

Home | Current Version | Previous Version | Graphics & Text | Print | Product List | Glossary On
Versions: 1 2 3 4 5 6 7 8 9 10 11 12 13 14 15 16 17 18 19 20 21 22 23 24 25 26 27 28 29 30 31 32 33 34 35 36 37 38 39 40 41 42 43 44 45 46 47 48 49 50
000
ASUS45 KTFX 282019
RWRMT
MONTANA HOURLY WEATHER ROUNDUP
NATIONAL WEATHER SERVICE GREAT FALLS MT
119 PM MST SUN DEC 28 2014

NOTE: "FAIR" INDICATES FEW OR NO CLOUDS BELOW 12000 FEET WITH NO
SIGNIFICANT WEATHER AND/OR OBSTRUCTIONS TO VISIBILITY.

* THESE STATIONS ARE NOT UNDER NWS QUALITY CONTROL. THEY DO NOT
   REPORT WEATHER SUCH AS PRECIPITATION OR FOG.

MTZ001>007-043-282100-
WEST OF THE DIVIDE
CITY           SKY/WX    TMP DP  RH WIND       PRES   REMARKS
KALISPELL      CLOUDY    27  16  63 NE21      30.05R WCI  13
MISSOULA       HVY SNOW  28  27  96 NW5       29.99S VSB M1/4 WCI  22
BUTTE          CLOUDY    27  16  63 NE5       29.88F WCI  21
MULLAN PASS    SNOW      25  19  78 CALM      29.86S VSB 1/2
* ESSEX        N/A       20  11  68 E5G10      N/A   WCI  13
* HAMILTON APT CLOUDY    32  25  75 S10       29.95S WCI  24
* LINCOLN      N/A       18  10  71 NE14G25    N/A   WCI   4
* LOOKOUT PASS N/A       25  24  96 N4         N/A
* POLSON       N/A       28  24  85 N1         N/A
* RONAN APT    PTSUNNY   30  28  92 N/A        N/A
* SEELEY LAKE  N/A       27  24  88 W2         N/A
* THOMP F APT  PTCLDY    22  15  74 SW3        N/A
* YAAK HILL    N/A       31  27  85 N/A        N/A
$$

MTZ008-052>055-282100-
SOUTHWEST MONTANA
CITY           SKY/WX    TMP DP  RH WIND       PRES   REMARKS
BOZEMAN        LGT SNOW  27  25  92 W6        29.92S VSB 2 1/2 WCI  20
DILLON         CLOUDY    27  16  63 S13       29.88F WCI  16
* W YELLOWSTON PTSUNNY   21  14  74 SW3G10     N/A
* THREE FORKS  CLOUDY    27  27 100 N9         N/A   WCI  18
* BOULDER HILL N/A       14  10  84 N19G27     N/A   WCI  -3
* MONIDA PASS  N/A       14  13  96 SE8        N/A   WCI   3
* RAYNOLDS PAS N/A       16   2  54 S11        N/A   WCI   3
* WHITEHALL    N/A       27  20  75 N11G17     N/A   WCI  17
* WISE RIVER   N/A       25  14  63 W4         N/A
$$

MTZ009>010-012-014-046-048-049-054-282100-
EAST SLOPES AND CENTRAL MONTANA
CITY           SKY/WX    TMP DP  RH WIND       PRES   REMARKS
CUT BANK       LGT SNOW  12   9  88 N24       30.16R VSB 1 1/4 WCI  -8
GREAT FALLS    HVY SNOW  12  10  92 NW13      30.11R VSB M1/4 WCI  -3
HELENA         LGT SNOW  19  10  68 N10       30.07R WCI   8
MALMSTROM AFB  LGT SNOW  14  12  92 NW13      30.15R VSB 1 1/4
* CONRAD       CLOUDY    14  10  84 NW17       N/A   WCI  -2
* DEARBORN     N/A       16  11  81 N/A        N/A
* EAST GLACIER N/A        9   4  80 E14G21     N/A   WCI  -7
* MONARCH      N/A        9   4  80 NW11       N/A   WCI  -5
* PENDROY      N/A       11  10  96 N24G32     N/A   WCI  -9
* ROGERS PASS  N/A       11   8  88 SE7G14     N/A
* SWEET GRASS  N/A       10   9  96 N/A        N/A
* WHITE SULPH  N/A       13   8  80 NW19G28    N/A   WCI  -5
$$

MTZ011-013-016-021-035-040-045-047-050-051-282100-
NORTH CENTRAL MONTANA
CITY           SKY/WX    TMP DP  RH WIND       PRES   REMARKS
HAVRE          LGT SNOW  19  14  81 NE7       30.16R WCI  10
LEWISTOWN      LGT SNOW  19  16  88 N13       29.97R VSB 3/4  WCI   6
* N BAR RANCH  HAZE      18  14  84 NW8       29.95R VSB 1 1/4 WCI   8
* CHINOOK      CLOUDY    19  16  88 CALM      30.18R VSB 1 3/4
* CHESTER      N/A       18  11  74 N9G14      N/A   WCI   7
* DENTON       N/A       17  14  88 NW17G23    N/A   WCI   1
* GEYSER       N/A       13  10  88 W22G29     N/A   WCI  -6
* JUDITH GAP   N/A       19  18  96 NW24G30    N/A   WCI   2
* LOMA         N/A       18  14  84 N18G24     N/A   WCI   2
$$

MTZ017>020-022>027-061-062-282100-
NORTHEAST MONTANA
CITY           SKY/WX    TMP DP  RH WIND       PRES   REMARKS
GLASGOW        CLOUDY    16   7  67 NE17      30.13R
GLENDIVE       CLOUDY    19  16  88 NE17      30.06R WCI   4
JORDAN         CLOUDY    19  16  88 N15       30.05R WCI   5
SIDNEY         CLOUDY    14   9  80 N14       30.16R VSB 3    WCI  -1
WOLF POINT     CLOUDY    14   7  73 NE18      30.17R WCI  -3
* BEAVER HILL  N/A       18  14  84 NE17       N/A   WCI   3
* CIRCLE       N/A       17  14  88 NE14G20    N/A   WCI   3
* LINDSAY DVD  N/A       18  16  92 NE14       N/A   WCI   4
* NAVAJO       N/A        5   0  80 NE12       N/A   WCI -11
* PLENTYWOOD A PTSUNNY    5  -2  72 NE14      30.19R WCI -12
* POPLAR APT   PTSUNNY   10   3  73 N/A       30.16S
* SACO         N/A       16  10  77 N10        N/A   WCI   4
$$

MTZ028>042-056>058-282100-
SOUTHCENTRAL AND SOUTHEAST MONTANA
CITY           SKY/WX    TMP DP  RH WIND       PRES   REMARKS
BAKER          LGT SNOW  25  18  75 E13       29.98S VSB 1 1/2 WCI  13
BILLINGS       LGT SNOW  27  21  78 N9        29.93R VSB 3    WCI  18
LIVINGSTON     LGT SNOW  28  23  81 NW14      29.89R VSB 3/4  WCI  17
MILES CITY     LGT SNOW  25  21  85 NE14      29.97S VSB 1 1/4 WCI  13
* BIG TIMBER A CLOUDY    27  25  92 NW7       29.90R VSB M1/4 WCI  19
* FORSYTH APT  CLOUDY    25  25 100 N8        29.96R VSB 3/4  WCI  16
* LAUREL APT   CLOUDY    25  16  69 N/A        N/A
* ROUNDUP APT  CLOUDY    21  16  81 N15G20     N/A   WCI   7
* ALZADA       N/A       27  13  55 E6         N/A   WCI  20
* HYSHAM       N/A       25  21  85 NE5        N/A   WCI  19
* LAME DEER    N/A      N/A N/A N/A N/A        N/A
* REED POINT   N/A       29  27  92 W9         N/A   WCI  21
* ROSCOE HILL  N/A       28  15  58 NE2        N/A
$$

REGIONAL REPORTS...DAKOTAS
CITY           SKY/WX    TMP DP  RH WIND       PRES   REMARKS
WILLISTON      CLOUDY    10   1  67 NE9       30.19R WCI  -3
DICKINSON      LGT SNOW  18  12  77 E15       30.04S VSB 2 1/2 WCI   4
BEACH          LGT SNOW  18  16  92 E16       30.03R VSB 2 1/2 WCI   3
CROSBY         PTCLDY     0  -2  91 NE8       30.27R WCI -14
WATFORD CITY   FOG        9   5  84 E10       30.15R WCI  -5
BISMARCK       LGT SNOW  10   5  80 NE10      30.20R WCI  -4
GRAND FORKS    SUNNY      0  -8  68 N10       30.35R WCI -16
FARGO          SUNNY      7  -4  60 N15       30.30R WCI -10
BUFFALO SD     PTSUNNY   25  18  75 E15       29.89S WCI  13
RAPID CITY     CLOUDY    27  16  63 NE9       29.93F WCI  18
$$

REGIONAL REPORTS...WYOMING/IDAHO/WASHINGTON
CITY           SKY/WX    TMP DP  RH WIND       PRES   REMARKS
GILLETTE       CLOUDY    25  12  58 CALM      29.85S
SHERIDAN       CLOUDY    25  12  58 CALM      29.87S
CODY           CLOUDY    18  12  77 CALM      29.84S
YELLOWSTONE LA PTSUNNY   16  10  77 CALM      29.83S
SALMON         PTSUNNY   21  16  81 CALM      29.99F
MULLAN PASS    SNOW      25  19  78 CALM      29.86S VSB 1/2
SAND POINT     LGT SNOW  32  32 100 CALM      30.05R VSB 3/4
SPOKANE        PTSUNNY   28  27  96 CALM      30.04S VSB 2
$$

REGIONAL REPORTS...ALBERTA
CITY           SKY/WX    TMP DP  RH WIND       PRES   REMARKS
CALGARY        LGT SNOW  12   7  80 N14       30.26R WCI  -4
LETHBRIDGE     LGT SNOW  14  12  92 N5        30.26R WCI   6
MEDICINE HAT   LGT SNOW   9   5  84 N7        30.29R VSB 2 1/2 WCI  -2
EDMONTON       LGT SNOW   9   3  76 NW8       30.40R VSB 3    WCI  -3
WATERTON GATE  N/A       14  10  84 E9         N/A   WCI   2
CARDSTON       N/A       14  12  92 N9         N/A   WCI   2
MILK RIVER     N/A       12  10  92 N22        N/A   WCI  -7
$$

REGIONAL REPORTS...SASKATCHEWAN
CITY           SKY/WX    TMP DP  RH WIND       PRES   REMARKS
SWIFT CURRENT  CLOUDY     1  -4  79 E13       30.24R WCI -17
REGINA         PTSUNNY   -4 -11  71 N7        30.33R WCI -18
VAL MARIE      N/A       10   7  88 NE13       N/A   WCI  -5
ASSINIBOIA     N/A        1  -6  72 NE13       N/A   WCI -17

$$




USA.gov is the U.S. government's official web portal to all federal, state and local government web resources and services.